| time (UTC) | temp F | wind direction | speed knots | gust knots | rain 1hr in | rain 24hr in | rain mn in | humidity % | barometer mb |
| 20260904183006 | 89 | 87 | 1.7 | 7.8 | 0.00 | 0.00 | 0.00 | 69 | 1012.5 |
| 20260904181518 | 89 | 59 | 2.6 | 7.0 | 0.00 | 0.00 | 0.00 | 67 | 1012.5 |
| 20260904180008 | 87 | 109 | 1.7 | 7.0 | 0.00 | 0.00 | 0.00 | 70 | 1012.6 |
| 20260904174505 | 86 | 116 | 0.9 | 5.2 | 0.00 | 0.00 | 0.00 | 71 | 1012.8 |
| 20260904173003 | 86 | 65 | 0.9 | 5.2 | 0.00 | 0.00 | 0.00 | 74 | 1013.0 |
| 20260904171503 | 85 | 221 | 0.9 | 3.5 | 0.00 | 0.00 | 0.00 | 75 | 1013.0 |
| 20260904170006 | 84 | 215 | 1.7 | 6.1 | 0.00 | 0.00 | 0.00 | 75 | 1012.9 |
| 20260904164505 | 85 | 225 | 0.0 | 7.0 | 0.00 | 0.00 | 0.00 | 77 | 1012.9 |
| 20260904163004 | 83 | 221 | 0.9 | 7.0 | 0.00 | 0.00 | 0.00 | 81 | 1012.9 |
| 20260904161504 | 82 | 232 | 1.7 | 4.3 | 0.00 | 0.00 | 0.00 | 84 | 1012.9 |
| 20260904160006 | 81 | 232 | 1.7 | 4.3 | 0.00 | 0.00 | 0.00 | 85 | 1012.8 |
| 20260904154504 | 80 | 232 | 0.9 | 6.1 | 0.00 | 0.00 | 0.00 | 86 | 1012.7 |
| 20260904153010 | 80 | 214 | 1.7 | 7.0 | 0.00 | 0.00 | 0.00 | 88 | 1012.7 |
| 20260904151504 | 79 | 229 | 0.9 | 3.5 | 0.00 | 0.00 | 0.00 | 89 | 1012.6 |
| 20260904150006 | 79 | 208 | 1.7 | 6.1 | 0.00 | 0.00 | 0.00 | 91 | 1012.6 |
| 20260904144505 | 79 | 240 | 1.7 | 4.3 | 0.00 | 0.00 | 0.00 | 92 | 1012.6 |
| 20260904143004 | 79 | 240 | 1.7 | 4.3 | 0.00 | 0.00 | 0.00 | 90 | 1012.6 |
| 20260904141507 | 80 | 244 | 0.9 | 2.6 | 0.00 | 0.00 | 0.00 | 88 | 1012.7 |
| 20260904140014 | 79 | 244 | 0.9 | 3.5 | 0.00 | 0.00 | 0.00 | 89 | 1012.7 |
| 20260904134504 | 79 | 94 | 0.0 | 1.7 | 0.00 | 0.00 | 0.00 | 90 | 1012.6 |
| 20260904133004 | 79 | 94 | 0.0 | 1.7 | 0.00 | 0.00 | 0.00 | 91 | 1012.5 |
| 20260904131503 | 79 | 94 | 0.0 | 0.9 | 0.00 | 0.00 | 0.00 | 90 | 1012.5 |
| 20260904130006 | 79 | 94 | 0.0 | 1.7 | 0.00 | 0.00 | 0.00 | 90 | 1012.4 |
| 20260904124509 | 78 | 89 | 0.0 | 3.5 | 0.00 | 0.00 | 0.00 | 90 | 1012.3 |
| 20260904123004 | 79 | 105 | 0.9 | 4.3 | 0.00 | 0.00 | 0.00 | 90 | 1012.1 |
| 20260904121503 | 79 | 109 | 1.7 | 4.3 | 0.00 | 0.00 | 0.00 | 89 | 1011.8 |
| 20260904120005 | 79 | 109 | 1.7 | 4.3 | 0.00 | 0.00 | 0.00 | 89 | 1011.3 |
| 20260904114505 | 79 | 109 | 2.6 | 7.0 | 0.00 | 0.00 | 0.00 | 89 | 1011.3 |
| 20260904113005 | 79 | 67 | 0.9 | 5.2 | 0.00 | 0.00 | 0.00 | 89 | 1011.2 |
| 20260904111503 | 79 | 107 | 0.0 | 3.5 | 0.00 | 0.00 | 0.00 | 89 | 1011.1 |
| 20260904110006 | 79 | 119 | 0.9 | 3.5 | 0.00 | 0.00 | 0.00 | 89 | 1011.2 |
| 20260904104504 | 79 | 105 | 0.0 | 1.7 | 0.00 | 0.00 | 0.00 | 88 | 1011.0 |
| 20260904103013 | 79 | 78 | 0.0 | 3.5 | 0.00 | 0.00 | 0.00 | 88 | 1010.9 |
| 20260904101505 | 79 | 109 | 0.0 | 1.7 | 0.00 | 0.00 | 0.00 | 88 | 1010.8 |
| 20260904100013 | 79 | 90 | 0.0 | 2.6 | 0.00 | 0.00 | 0.00 | 88 | 1010.8 |
| 20260904094503 | 79 | 222 | 0.0 | 1.7 | 0.00 | 0.00 | 0.00 | 87 | 1010.7 |
| 20260904093002 | 79 | 222 | 0.0 | 1.7 | 0.00 | 0.00 | 0.00 | 87 | 1010.6 |
| 20260904091503 | 79 | 165 | 0.0 | 6.1 | 0.00 | 0.00 | 0.00 | 87 | 1010.7 |
| 20260904090005 | 79 | 218 | 0.0 | 5.2 | 0.00 | 0.00 | 0.00 | 86 | 1010.6 |
| 20260904084503 | 79 | 232 | 0.9 | 4.3 | 0.00 | 0.00 | 0.00 | 86 | 1010.7 |
| 20260904083007 | 79 | 265 | 0.9 | 3.5 | 0.00 | 0.00 | 0.00 | 86 | 1010.7 |
| 20260904081505 | 79 | 316 | 0.0 | 2.6 | 0.00 | 0.00 | 0.00 | 86 | 1010.8 |
| 20260904080006 | 79 | 275 | 0.9 | 4.3 | 0.00 | 0.00 | 0.00 | 86 | 1010.7 |
| 20260904074503 | 79 | 303 | 0.9 | 4.3 | 0.00 | 0.00 | 0.00 | 86 | 1010.7 |
| 20260904073003 | 79 | 79 | 0.9 | 7.8 | 0.00 | 0.00 | 0.00 | 85 | 1010.8 |
| 20260904071503 | 79 | 197 | 0.0 | 3.5 | 0.00 | 0.00 | 0.00 | 85 | 1010.9 |
| 20260904070014 | 80 | 238 | 0.9 | 3.5 | 0.00 | 0.00 | 0.00 | 85 | 1011.0 |
| 20260904064510 | 80 | 103 | 0.9 | 5.2 | 0.00 | 0.00 | 0.00 | 84 | 1011.1 |
| 20260904063010 | 80 | 75 | 1.7 | 3.5 | 0.00 | 0.00 | 0.00 | 84 | 1011.0 |
| 20260904061503 | 80 | 217 | 0.9 | 7.0 | 0.00 | 0.00 | 0.00 | 83 | 1011.0 |
| 20260904060008 | 80 | 221 | 1.7 | 4.3 | 0.00 | 0.00 | 0.00 | 82 | 1011.1 |
| 20260904054506 | 80 | 88 | 0.9 | 5.2 | 0.00 | 0.00 | 0.00 | 82 | 1011.0 |
| 20260904053013 | 80 | 107 | 1.7 | 7.0 | 0.00 | 0.00 | 0.00 | 82 | 1010.8 |
| 20260904051506 | 80 | 102 | 0.9 | 6.1 | 0.00 | 0.00 | 0.00 | 82 | 1010.8 |
| 20260904050010 | 80 | 111 | 0.9 | 6.1 | 0.00 | 0.00 | 0.00 | 81 | 1010.9 |
| 20260904044506 | 80 | 100 | 2.6 | 6.1 | 0.00 | 0.00 | 0.00 | 81 | 1010.9 |
| 20260904043005 | 80 | 92 | 0.9 | 6.1 | 0.00 | 0.00 | 0.00 | 80 | 1010.8 |
| 20260904041505 | 80 | 92 | 2.6 | 7.8 | 0.00 | 0.00 | 0.00 | 80 | 1010.7 |
| 20260904040007 | 80 | 90 | 1.7 | 5.2 | 0.00 | 0.00 | 0.00 | 80 | 1010.6 |
| 20260904034505 | 80 | 103 | 0.9 | 7.8 | 0.00 | 0.00 | 0.00 | 79 | 1010.6 |
| 20260904033005 | 81 | 108 | 1.7 | 7.8 | 0.00 | 0.00 | 0.00 | 79 | 1010.6 |
| 20260904031505 | 81 | 60 | 2.6 | 7.8 | 0.00 | 0.00 | 0.00 | 78 | 1010.4 |
| 20260904030007 | 81 | 69 | 1.7 | 6.1 | 0.00 | 0.00 | 0.00 | 76 | 1010.3 |
| 20260904024504 | 82 | 101 | 1.7 | 7.0 | 0.00 | 0.00 | 0.00 | 75 | 1010.2 |
| 20260904023005 | 82 | 108 | 3.5 | 11.3 | 0.00 | 0.00 | 0.00 | 74 | 1009.9 |
| 20260904021505 | 83 | 86 | 2.6 | 7.8 | 0.00 | 0.00 | 0.00 | 72 | 1009.9 |
| 20260904020007 | 83 | 111 | 0.9 | 6.1 | 0.00 | 0.00 | 0.00 | 71 | 1009.7 |
| 20260904014505 | 84 | 96 | 1.7 | 6.1 | 0.00 | 0.00 | 0.00 | 70 | 1009.5 |
| 20260904013005 | 84 | 96 | 1.7 | 6.1 | 0.00 | 0.00 | 0.00 | 69 | 1009.1 |
| 20260904011511 | 85 | 63 | 2.6 | 7.8 | 0.00 | 0.00 | 0.00 | 68 | 1009.0 |
| 20260904010010 | 85 | 150 | 2.6 | 7.8 | 0.00 | 0.00 | 0.00 | 67 | 1009.0 |
| 20260904004505 | 86 | 67 | 2.6 | 7.8 | 0.00 | 0.00 | 0.00 | 66 | 1009.1 |
| 20260904003007 | 86 | 35 | 2.6 | 9.6 | 0.00 | 0.00 | 0.00 | 66 | 1009.1 |
| 20260904001504 | 87 | 94 | 3.5 | 12.2 | 0.00 | 0.00 | 0.00 | 65 | 1009.0 |
| 20260904000009 | 88 | 64 | 4.3 | 11.3 | 0.00 | 0.00 | 0.00 | 63 | 1009.0 |
| 20260903234505 | 89 | 52 | 2.6 | 7.8 | 0.00 | 0.00 | 0.00 | 64 | 1008.8 |
| 20260903233004 | 89 | 75 | 3.5 | 8.7 | 0.00 | 0.00 | 0.00 | 64 | 1008.7 |
| 20260903231504 | 91 | 48 | 4.3 | 10.4 | 0.00 | 0.00 | 0.00 | 62 | 1008.5 |
| 20260903230010 | 93 | 70 | 4.3 | 12.2 | 0.00 | 0.00 | 0.00 | 55 | 1008.4 |
| 20260903224510 | 95 | 88 | 5.2 | 11.3 | 0.00 | 0.00 | 0.00 | 50 | 1008.0 |
| 20260903223004 | 94 | 123 | 3.5 | 8.7 | 0.00 | 0.00 | 0.00 | 51 | 1008.0 |
| 20260903221505 | 95 | 146 | 3.5 | 9.6 | 0.00 | 0.00 | 0.00 | 51 | 1007.9 |
| 20260903220018 | 95 | 57 | 5.2 | 13.9 | 0.00 | 0.00 | 0.00 | 50 | 1007.8 |
| 20260903214507 | 98 | 81 | 3.5 | 8.7 | 0.00 | 0.00 | 0.00 | 46 | 1007.9 |
| 20260903213004 | 98 | 48 | 1.7 | 7.8 | 0.00 | 0.00 | 0.00 | 47 | 1008.0 |
| 20260903211504 | 98 | 98 | 2.6 | 8.7 | 0.00 | 0.00 | 0.00 | 47 | 1008.1 |
| 20260903210006 | 100 | 90 | 3.5 | 9.6 | 0.00 | 0.00 | 0.00 | 45 | 1008.2 |
| 20260903204510 | 99 | 70 | 3.5 | 9.6 | 0.00 | 0.00 | 0.00 | 45 | 1008.5 |
| 20260903203004 | 101 | 131 | 4.3 | 8.7 | 0.00 | 0.00 | 0.00 | 43 | 1008.7 |
| 20260903201506 | 101 | 107 | 4.3 | 9.6 | 0.00 | 0.00 | 0.00 | 44 | 1008.8 |
| 20260903200006 | 100 | 68 | 2.6 | 7.8 | 0.00 | 0.00 | 0.00 | 45 | 1008.8 |
| 20260903194505 | 99 | 123 | 1.7 | 7.8 | 0.00 | 0.00 | 0.00 | 46 | 1009.1 |
| 20260903193004 | 99 | 41 | 1.7 | 8.7 | 0.00 | 0.00 | 0.00 | 46 | 1009.3 |
| 20260903191507 | 99 | 38 | 1.7 | 8.7 | 0.00 | 0.00 | 0.00 | 46 | 1009.5 |
| 20260903190007 | 98 | 78 | 3.5 | 8.7 | 0.00 | 0.00 | 0.00 | 47 | 1009.8 |
| 20260903184504 | 98 | 61 | 3.5 | 8.7 | 0.00 | 0.00 | 0.00 | 48 | 1010.0 |